Weather observations for the past three days for
Huron County Memorial Airport
Imperial (Metric)
Date Time (edt) Wind (mph) Vis. (mi.) Weather Sky Cond. Temperature (ºF) Relative Humidity Wind Chill (°F) Heat Index (°F) Pressure Precipitation (in)
Air Dwpt 6 hour altimeter (in) sea level (mb) 1 hr 3 hr 6 hr
Max. Min.
19 08:35 SE 6 10.00 Fair CLR 61.3 56.5 84% 30.2 0.0
19 08:15 Calm 10.00 Fair CLR 60.1 55.9 86% 30.19 0.0
19 07:55 Calm 10.00 Fair CLR 59 55.4 59 50 88% 30.19 0.0
19 07:35 Calm 10.00 Fair CLR 57.4 54 88% 30.18 0.0
19 07:15 Calm 10.00 Fair CLR 54 51.6 92% 30.18 0.0
19 06:55 Calm 10.00 Fair CLR 51.6 49.5 92% 30.17 0.0
19 06:35 Calm 10.00 Fair CLR 50.4 49.1 95% 30.17 0.0
19 06:15 Calm 10.00 Fair CLR 50.4 49.8 98% 30.17 0.0
19 05:55 Calm 10.00 Fair CLR 50.4 49.5 97% 30.17 0.0
19 05:35 Calm 10.00 Fair CLR 51.1 50.7 99% 30.16 0.0
19 05:15 Calm 10.00 Fair CLR 50.9 50.5 99% 30.17 0.0
19 04:55 Calm 10.00 Fair CLR 50.9 50.2 97% 30.16 0.0
19 04:35 Calm 10.00 Fair CLR 51.6 50.7 97% 30.16 0.0
19 04:15 Calm 10.00 Partly Cloudy SCT042 52.7 51.6 96% 30.17 0.0
19 03:55 Calm 10.00 Mostly Cloudy BKN044 BKN050 52.9 51.1 94% 30.16 0.0
19 03:35 Calm 10.00 Mostly Cloudy SCT044 BKN050 52.9 51.8 96% 30.17 0.0
19 03:15 Calm 10.00 Partly Cloudy SCT050 52.7 51.4 96% 30.16 0.0
19 02:55 Calm 10.00 Mostly Cloudy BKN055 54 51.8 92% 30.17 0.0
19 02:35 Calm 10.00 Overcast OVC055 53.1 51.8 96% 30.17 0.0
19 02:15 Calm 10.00 Mostly Cloudy BKN055 52.3 51.1 96% 30.17 0.0
19 01:55 Calm 10.00 Fair CLR 52.5 51.4 67.1 52 96% 30.17 0.0
19 01:35 Calm 10.00 Fair CLR 52.5 51.4 96% 30.16 0.0
19 01:15 Calm 10.00 Fair CLR 52 50.4 94% 30.16 0.0
19 00:55 Calm 10.00 Fair CLR 52.7 51.1 94% 30.16 0.0
19 00:35 Calm 10.00 Fair CLR 53.1 52.2 97% 30.16 0.0
19 00:15 Calm 10.00 Fair CLR 53.4 52.7 97% 30.16 0.0
18 23:55 Calm 10.00 Fair CLR 54.3 53.6 97% 30.16 0.0
18 23:35 Calm 10.00 Fair CLR 54.5 53.2 96% 30.15 0.0
18 23:15 Calm 10.00 Fair CLR 54.9 53.4 95% 30.15 0.0
18 22:55 Calm 10.00 Fair CLR 54.5 53.6 97% 30.15 0.0
18 22:35 Calm 10.00 Fair CLR 55.4 53.6 94% 30.15 0.0
18 22:15 Calm 10.00 Fair CLR 57.2 54 89% 30.15 0.0
18 21:55 Calm 10.00 Fair CLR 58.5 54.9 88% 30.14 0.0
18 21:35 Calm 10.00 Fair CLR 61 55 81% 30.14 0.0
18 21:15 Calm 10.00 Fair CLR 62.1 55.2 78% 30.14 0.0
18 20:55 Calm 10.00 Fair CLR 64.4 55.4 73% 30.15 0.0
18 20:35 E 3 10.00 Fair CLR 65.1 55.4 71% 30.15 0.0
18 20:15 NE 3 10.00 Fair CLR 66.2 54.9 67% 30.15 0.0
18 19:55 NE 3 10.00 Fair CLR 67.3 54.5 70.3 66 64% 30.15 0.0
18 19:35 N 6 10.00 Fair CLR 68 54.1 61% 30.14 0.0
18 19:15 N 9 10.00 Fair CLR 68.9 54.3 60% 30.14 0.0
18 18:55 N 6 10.00 Partly Cloudy SCT048 69.4 51.8 54% 30.14 0.0
18 18:35 N 9 10.00 Partly Cloudy SCT048 69.6 51.8 53% 30.14 0.0
18 18:15 N 9 10.00 Mostly Cloudy BKN046 69.8 52.7 55% 30.14 0.0
18 17:55 N 6 10.00 Mostly Cloudy BKN046 69.6 52.5 55% 30.14 0.0
18 17:35 N 5 10.00 Mostly Cloudy BKN046 69.3 54.3 59% 30.14 0.0
18 17:15 N 8 10.00 Overcast BKN046 OVC050 69.3 54 58% 30.14 0.0
18 16:55 N 7 10.00 Mostly Cloudy BKN044 BKN050 68.7 53.1 58% 30.14 0.0
18 16:35 N 6 10.00 Partly Cloudy SCT046 70 54.3 58% 30.14 0.0
18 16:15 N 6 10.00 Mostly Cloudy SCT044 BKN050 68.7 53.1 58% 30.14 0.0
18 15:55 N 7 10.00 Mostly Cloudy SCT047 BKN060 68.2 52.7 58% 30.15 0.0
18 15:35 N 8 10.00 Mostly Cloudy SCT042 BKN060 68.9 53.4 58% 30.15 0.0
18 15:15 N 10 G 17 10.00 Mostly Cloudy BKN060 68.5 53.4 59% 30.16 0.0
18 14:55 N 9 10.00 Mostly Cloudy SCT040 SCT050 BKN055 68.4 53.2 59% 30.16 0.0
18 14:35 N 8 10.00 Mostly Cloudy SCT040 BKN048 BKN050 67.3 53.1 60% 30.15 0.0
18 14:15 NE 9 G 16 10.00 Mostly Cloudy SCT034 SCT040 BKN050 66.6 52.7 61% 30.15 0.0
18 13:55 N 12 G 17 10.00 Overcast SCT031 SCT039 OVC050 66.6 55 67.5 60.3 67% 30.16 0.0
18 13:35 N 10 G 21 10.00 Overcast SCT033 SCT039 OVC050 65.8 55 68% 30.16 0.0
18 13:15 N 12 G 22 10.00 Mostly Cloudy SCT035 BKN040 BKN050 64.6 53.6 68% 30.15 0.0
18 12:55 N 10 G 21 10.00 Mostly Cloudy BKN038 BKN050 66.9 54.1 64% 30.15 0.0
18 12:35 N 9 G 20 10.00 Mostly Cloudy BKN035 BKN041 66 53.4 64% 30.15 0.0
18 12:15 N 10 G 21 10.00 Mostly Cloudy BKN035 65.7 52.9 64% 30.15 0.0
18 11:55 N 8 G 21 10.00 Mostly Cloudy BKN035 66.4 53.6 64% 30.15 0.0
18 11:35 N 20 G 24 10.00 Mostly Cloudy BKN037 66.4 53.8 64% 30.14 0.0
18 11:15 N 10 G 23 10.00 Partly Cloudy SCT037 65.7 52.2 62% 30.14 0.0
18 10:55 N 14 G 24 10.00 Partly Cloudy SCT033 65.1 51.3 61% 30.14 0.0
18 10:35 NE 16 G 22 10.00 Partly Cloudy SCT028 SCT037 64.8 52.9 66% 30.13 0.0
18 10:15 N 16 G 24 10.00 Partly Cloudy SCT024 SCT030 63 54.3 74% 30.12 0.0
18 09:55 N 17 G 25 10.00 Mostly Cloudy BKN022 BKN030 BKN038 64.6 55.8 73% 30.12 0.0
18 09:35 N 14 G 24 10.00 Mostly Cloudy SCT020 BKN027 BKN032 62.1 54.7 77% 30.12 0.0
18 09:15 N 12 G 24 10.00 Mostly Cloudy SCT018 BKN029 BKN036 61.3 55.6 81% 30.11 0.0
18 08:55 N 10 10.00 Mostly Cloudy SCT016 BKN023 BKN028 61.2 55.9 83% 30.11 0.0
18 08:35 NW 9 10.00 Mostly Cloudy BKN014 BKN025 60.4 56.3 86% 30.11 0.0
18 08:15 NW 10 10.00 Mostly Cloudy BKN014 BKN020 BKN027 61.7 57.4 86% 30.1 0.0
18 07:55 NW 9 10.00 Partly Cloudy SCT016 60.6 57.2 60.6 55.6 89% 30.1 0.0
18 07:35 NW 7 10.00 Partly Cloudy SCT016 59.4 56.5 90% 30.09 0.0
18 07:15 NW 7 10.00 Partly Cloudy SCT018 59 56.5 91% 30.09 0.0
18 06:55 NW 5 10.00 Mostly Cloudy BKN014 58.1 56.3 94% 30.08 0.0
18 06:35 NW 5 10.00 Mostly Cloudy BKN014 58.3 56.5 94% 30.08 0.0
18 06:15 N 6 10.00 Fair CLR 57.7 56.3 95% 30.07 0.0
18 05:55 NW 6 10.00 Fair CLR 58.3 56.5 94% 30.07 0.0
18 05:35 NW 7 10.00 Fair CLR 58.3 56.7 94% 30.06 0.0
18 04:57 NW 6 10.00 Partly Cloudy SCT013 SCT019 57.4 56.1 96% 30.05 0.0
17 23:15 N 3 10.00 Partly Cloudy SCT048 SCT060 SCT075 61 56.5 85% 30 0.0
17 22:55 N 3 10.00 Overcast SCT041 BKN050 OVC060 62.6 56.7 81% 30 0.0
17 22:35 N 3 10.00 Overcast BKN041 BKN060 OVC080 63 57 81% 30 0.0
17 22:15 NE 5 10.00 Overcast SCT065 OVC080 63.1 57.2 81% 29.99 0.0
17 21:55 N 7 10.00 Mostly Cloudy SCT042 SCT048 BKN060 63.9 57.6 80% 29.98 0.0
17 21:35 NE 8 10.00 Overcast BKN042 BKN048 OVC055 64.4 57.9 80% 29.98 0.0
17 21:15 NE 6 10.00 Mostly Cloudy BKN048 BKN060 BKN080 64.9 57.7 78% 29.96 0.0
17 20:55 NE 7 10.00 Partly Cloudy SCT080 66.4 58.1 75% 29.96 0.0
17 20:35 NE 7 G 17 10.00 Partly Cloudy SCT043 SCT050 68 59.2 74% 29.95 0.0
17 20:15 N 12 10.00 Partly Cloudy SCT046 70.2 58.5 67% 29.94 0.0
17 19:55 N 12 10.00 Fair CLR 70.5 58.3 76.1 65.3 65% 29.93 0.0
17 19:35 N 13 10.00 Fair CLR 71.6 57.6 61% 29.93 0.0
17 19:15 N 13 10.00 Fair CLR 72.1 57.9 61% 29.93 0.0
17 18:55 NE 3 10.00 Partly Cloudy SCT070 SCT080 71.6 59.5 66% 29.92 0.0
17 18:35 N 9 10.00 Partly Cloudy SCT070 71.6 59 65% 29.92 0.0
17 18:15 N 9 10.00 Fair CLR 72.1 58.8 63% 29.91 0.0
17 17:55 E 6 10.00 Partly Cloudy SCT070 71.2 58.5 64% 29.91 0.0
17 17:35 Calm 10.00 Mostly Cloudy BKN070 71.2 58.6 65% 29.91 0.0
17 17:15 E 6 10.00 Partly Cloudy SCT070 70.9 59.4 67% 29.91 0.0
17 16:55 NE 7 10.00 Partly Cloudy SCT070 70.2 59.2 68% 29.91 0.0
17 16:35 NE 10 G 24 10.00 Mostly Cloudy SCT035 SCT050 BKN070 71.6 60.1 67% 29.92 0.0
17 16:15 N 13 G 23 10.00 Overcast SCT034 BKN044 OVC070 71.6 60.3 68% 29.92 0.0
17 15:55 Calm 10.00 Overcast BKN070 OVC085 70.5 59.2 67% 29.91 0.0
17 15:35 SE 6 10.00 Partly Cloudy SCT080 SCT100 69.8 60.3 72% 29.91 0.0
17 15:15 S 3 10.00 Mostly Cloudy SCT080 BKN100 BKN120 68.5 59 72% 29.91 0.0
17 14:55 Calm 10.00 Light Rain SCT040 BKN075 OVC095 66 58.5 77% 29.89 0.0
17 14:35 NW 14 G 23 10.00 Overcast SCT038 BKN060 OVC085 71.2 58.3 64% 29.9 0.0
17 14:15 N 10 G 16 10.00 Mostly Cloudy SCT036 SCT044 BKN060 74.5 61 63% 29.89 0.0
17 13:55 NW 7 G 20 10.00 Mostly Cloudy SCT034 SCT048 BKN085 75.7 62.6 75.7 65.7 64% 78 29.89 0.0
17 13:35 N 7 G 16 10.00 Overcast BKN037 BKN046 OVC050 74.1 62.6 67% 29.89 0.0
17 13:15 N 10 10.00 Mostly Cloudy BKN036 BKN048 BKN050 75.2 63 66% 77 29.89 0.0
17 12:55 NE 7 10.00 Partly Cloudy SCT029 SCT041 SCT055 73.4 62.6 69% 29.89 0.0
17 12:35 N 12 G 16 10.00 Mostly Cloudy SCT029 BKN038 BKN060 74.7 64.2 70% 29.88 0.0
17 12:15 N 8 10.00 Mostly Cloudy SCT034 SCT040 BKN050 74.5 63.1 68% 29.88 0.0
17 11:55 N 6 10.00 Mostly Cloudy SCT035 BKN050 BKN070 73.6 61.9 67% 29.89 0.0
17 11:35 N 6 10.00 Mostly Cloudy SCT026 SCT035 BKN055 72.5 61.9 69% 29.89 0.0
17 11:15 NW 9 10.00 Partly Cloudy SCT028 SCT033 73.2 62.8 70% 29.89 0.0
17 10:55 W 7 10.00 Partly Cloudy SCT026 73.6 62.8 69% 29.89 0.0
17 10:35 N 5 10.00 Fair CLR 72.7 60.4 66% 29.89 0.0
17 10:15 NW 3 10.00 Partly Cloudy SCT110 72 60.8 68% 29.89 0.0
17 09:55 N 6 10.00 Mostly Cloudy BKN110 71.1 60.8 70% 29.89 0.0
17 09:35 N 5 10.00 Mostly Cloudy BKN120 70.3 62.2 76% 29.89 0.0
17 09:15 N 7 10.00 Overcast SCT095 OVC110 69.8 62.4 78% 29.89 0.0
17 08:35 N 8 10.00 Partly Cloudy SCT120 68.9 65.3 88% 29.89 0.0
17 08:15 NW 3 10.00 Partly Cloudy SCT100 SCT120 67.1 64.8 92% 29.89 0.0
17 07:55 NW 5 10.00 Mostly Cloudy SCT100 BKN120 65.1 64 65.1 59.2 96% 29.89 0.0
17 07:35 Calm 10.00 Overcast OVC090 63.9 63.5 99% 29.88 0.0
17 07:15 Calm 10.00 Overcast OVC100 63.1 62.8 99% 29.88 0.0
17 06:55 Calm 10.00 Overcast OVC100 62.2 61.9 99% 29.87 0.0
17 06:35 Calm 10.00 Overcast OVC100 61.2 60.8 99% 29.87 0.0
17 06:15 Calm 10.00 Overcast OVC110 60.8 60.6 99% 29.86 0.0
17 05:55 Calm 3.00 Fog/Mist BKN110 60.4 60.4 100% 29.86 0.0
17 05:35 N 3 2.00 Fog/Mist SCT090 SCT120 60.8 60.8 100% 29.85 0.0
17 05:15 Calm 4.00 Fog/Mist SCT002 BKN090 59.5 59.4 99% 29.85 0.0
17 04:55 Calm 1.50 Fog/Mist BKN002 BKN090 60.3 60.3 100% 29.84 0.0
17 04:35 Calm 3.00 Fog/Mist BKN002 59.9 59.7 99% 29.83 0.0
17 04:15 Calm 2.50 Fog/Mist CLR 61 61 100% 29.83 0.0
17 03:55 Calm 4.00 Fog/Mist CLR 60.8 60.8 100% 29.83 0.0
17 03:35 Calm 3.00 Fog/Mist CLR 61.2 61.2 100% 29.83 0.0
17 03:15 Calm 5.00 Fog/Mist CLR 62.1 62.1 100% 29.83 0.0
17 02:55 Calm 3.00 Fog/Mist SCT002 61.7 61.3 99% 29.83 0.0
17 02:35 Calm 7.00 Fair CLR 61.7 61.5 99% 29.84 0.0
17 02:15 Calm 7.00 Fair CLR 62.1 61.9 99% 29.83 0.0
17 01:55 SE 3 7.00 Fair CLR 61.7 61.2 77 61.2 98% 29.84 0.0
17 01:35 Calm 1.25 Fog/Mist VV007 63.1 63 99% 29.84 0.0
17 01:15 N 5 10.00 Fair CLR 63.9 63.1 98% 29.83 0.0
17 00:55 N 3 10.00 Fair CLR 64.8 63.9 97% 29.83 0.0
17 00:35 Calm 10.00 Fair CLR 65.7 65.1 98% 29.83 0.0
17 00:15 N 9 10.00 Fair CLR 66.2 65.1 96% 29.82 0.0
16 23:55 N 6 10.00 Fair CLR 65.7 64.6 96% 29.82 0.0
16 23:35 Calm 10.00 Partly Cloudy SCT046 67.5 66 95% 29.82 0.0
16 23:15 N 12 10.00 Fair CLR 68.2 66.2 93% 29.81 0.0
16 22:55 N 6 10.00 Fair CLR 68.7 64.9 88% 29.81 0.0
16 22:35 NW 3 10.00 Partly Cloudy SCT045 SCT050 71.1 64.4 80% 29.81 0.0
16 22:15 NW 5 10.00 Mostly Cloudy BKN048 72 66.9 84% 29.81 0.0
16 21:55 NW 3 10.00 Mostly Cloudy BKN046 BKN055 71.4 68.5 91% 29.8 0.0
16 21:35 Calm 10.00 Partly Cloudy SCT046 SCT075 72 68.7 90% 29.79 0.0
16 21:15 Calm 10.00 Mostly Cloudy BKN075 73.8 69.3 86% 29.78 0.0
16 20:55 Calm 10.00 Mostly Cloudy SCT046 SCT065 BKN075 75 70.7 86% 75 29.78 0.0
16 20:35 Calm 10.00 Mostly Cloudy BKN046 BKN055 75.4 70 83% 76 29.78 0.0
16 20:15 Calm 10.00 Partly Cloudy SCT046 SCT055 SCT070 76.3 69.6 80% 77 29.77 0.0
16 19:55 NW 3 10.00 Partly Cloudy SCT050 SCT065 SCT075 77 69.6 81.5 71.6 78% 79 29.76 0.0
16 19:35 Calm 10.00 Mostly Cloudy SCT055 BKN075 76.6 70 80% 78 29.77 0.0
16 19:15 NW 6 10.00 Partly Cloudy SCT044 SCT095 77 69.4 78% 79 29.77 0.0
16 18:55 NW 6 10.00 Mostly Cloudy SCT048 BKN095 77.5 70 78% 79 29.76 0.0
16 18:35 Calm 10.00 Mostly Cloudy BKN048 BKN085 76.8 69.8 79% 78 29.76 0.0
16 18:15 W 3 10.00 Mostly Cloudy SCT048 BKN085 BKN110 74.8 70.2 85% 29.76 0.0
16 17:55 NW 7 10.00 Rain SCT023 BKN045 OVC110 72.3 69.6 91% 29.76 0.0
16 17:35 NW 14 G 24 10.00 Overcast BKN022 BKN042 OVC049 73.9 66.4 77% 29.78 0.0
16 17:15 W 8 10.00 Mostly Cloudy BKN022 BKN030 BKN050 79.5 71.6 77% 83 29.76 0.0
16 16:55 SW 9 10.00 Partly Cloudy SCT022 SCT027 79.7 71.4 76% 83 29.74 0.0
16 16:35 W 12 10.00 Partly Cloudy SCT021 SCT027 SCT095 81.5 71.8 72% 86 29.74 0.0
16 16:15 W 8 10.00 Mostly Cloudy SCT021 SCT028 BKN095 80.4 71.2 74% 84 29.74 0.0
16 15:55 SW 7 10.00 Overcast BKN021 BKN029 OVC090 79.3 71.2 76% 83 29.76 0.0
16 15:35 SW 7 G 16 10.00 Overcast BKN021 OVC030 79.2 71.2 77% 82 29.76 0.0
16 15:15 SW 7 10.00 Overcast OVC019 78.3 71.2 79% 81 29.75 0.0
16 14:55 W 7 10.00 Overcast BKN021 BKN032 OVC041 78.1 70.7 78% 80 29.75 0.0
16 14:35 W 13 G 20 10.00 Overcast BKN023 BKN033 OVC044 78.4 70.7 77% 81 29.76 0.0
16 14:15 W 10 10.00 Overcast OVC023 77.5 70.5 79% 79 29.76 0.0
16 13:55 W 14 G 17 10.00 Overcast SCT023 BKN029 OVC048 79.5 70.5 80.4 68 74% 83 29.76 0.0
16 13:35 W 15 10.00 Overcast OVC036 79.5 70.2 73% 83 29.76 0.0
16 13:15 W 10 G 17 10.00 Overcast SCT021 OVC034 78.8 70.5 76% 82 29.75 0.0
16 12:55 W 12 G 17 10.00 Overcast BKN023 OVC033 79 70.5 75% 82 29.75 0.0
16 12:35 NW 10 G 21 10.00 Overcast OVC027 77.5 69.4 76% 79 29.74 0.0
16 12:15 W 10 G 17 10.00 Mostly Cloudy BKN029 BKN038 BKN075 78.3 68.4 72% 80 29.74 0.0
16 11:55 W 13 G 20 10.00 Partly Cloudy SCT075 79.9 68.5 68% 83 29.73 0.0
16 11:35 W 12 G 16 10.00 Fair CLR 79.3 68.9 71% 82 29.73 0.0
16 11:15 W 14 G 17 10.00 Partly Cloudy SCT050 79.2 68.7 70% 82 29.73 0.0
16 10:55 W 9 10.00 Mostly Cloudy BKN050 77.9 68.5 73% 80 29.73 0.0
16 10:35 W 10 10.00 Mostly Cloudy BKN050 77.9 69.3 75% 80 29.72 0.0
16 10:15 W 8 10.00 Partly Cloudy SCT050 77.5 69.6 77% 79 29.72 0.0
16 09:55 W 6 10.00 Partly Cloudy SCT050 SCT060 76.3 68.5 77% 78 29.71 0.0
16 09:35 SW 8 10.00 Partly Cloudy SCT060 75.4 68 78% 76 29.71 0.0
16 09:15 W 6 10.00 Mostly Cloudy BKN060 74.5 69.6 85% 29.71 0.0
16 08:55 SW 3 10.00 Partly Cloudy SCT070 72 68 87% 29.71 0.0
Date Time (edt) Wind (mph) Vis. (mi.) Weather Sky Cond. Air Dwpt Max. Min. Relative Humidity Wind Chill (°F) Heat Index (°F) altimeter (in) sea level (mb) 1 hr 3 hr 6 hr
6 hour
Temperature (ºF) Pressure Precipitation (in)